Regional Weather Roundup
Issued by NWS

Home | Current Version | Previous Version | Text Only | Print | Product List | Glossary On
Versions: 1 2 3 4 5 6 7 8 9 10 11 12 13 14 15 16 17 18 19 20 21 22 23 24 25 26 27 28 29 30 31 32 33 34 35 36 37 38 39 40 41 42 43 44 45 46 47 48 49 50
000
ASUS44 KMEG 280010
RWRTN
TENNESSEE HOURLY STATE WEATHER ROUNDUP
NATIONAL WEATHER SERVICE MEMPHIS TN
700 PM CDT WED MAY 27 2015

TNZ002-004-019-021-049-052-054-088>092-280100-
WEST TENNESSEE

CITY           SKY/WX    TMP DP  RH WIND       PRES   REMARKS
MEMPHIS INTL   CLOUDY    76  65  68 SE7       30.09F
NWS MEMPHIS      N/A     75 N/A N/A MISG        N/A
JACKSON        CLOUDY    74  66  76 CALM      30.10F
DYERSBURG      CLOUDY    75  57  53 CALM      30.10S
PARIS          SUNNY     72  66  83 S3        30.12R
LEXINGTON      MOSUNNY   68  68 100 SE5       30.12S
$$

TNZ008-025-027-028-033-062-065-066-280100-
NORTH MIDDLE TENNESSEE

CITY           SKY/WX    TMP DP  RH WIND       PRES   REMARKS
NASHVILLE      CLOUDY    72  68  87 CALM      30.14F
CLARKSVILLE    CLOUDY    72  67  84 SE3       30.11F
SMYRNA         LGT RAIN  70  69  96 SE5       30.14F
COOKEVILLE     PTCLDY    72  68  88 CALM      30.17S
CROSSVILLE     CLOUDY    72  62  71 CALM      30.22S
$$

TNZ061-075-076-078-094-096-097-280100-
SOUTH MIDDLE TENNESSEE

CITY           SKY/WX    TMP DP  RH WIND       PRES   REMARKS
FAYETTEVILLE     N/A    N/A N/A N/A MISG      30.16R
TULLAHOMA      CLEAR     72  63  73 CALM      30.18R
WINCHESTER     PTCLDY    72  63  73 NE3       30.18R
MCMINNVILLE    CLEAR     73  64  73 CALM      30.18R
COLUMBIA       PTCLDY    70  68  94 SW3       30.15R
SHELBYVILLE    PTCLDY    73  68  83 CALM      30.16R
$$

TNZ017-018-042-046-047-280100-
NORTHEAST TENNESSEE

CITY           SKY/WX    TMP DP  RH WIND       PRES   REMARKS
TRI CITIES     PTCLDY    80  58  46 NW8       30.18S
ELIZABETHTON   PTCLDY    73  64  73 NW3       30.19R
$$

TNZ012-013-036-069-073-074-280100-
CENTRAL EAST TENNESSEE

CITY           SKY/WX    TMP DP  RH WIND       PRES   REMARKS
KNOXVILLE      MOCLDY    79  60  52 W5        30.17R
OAK RIDGE      MOCLDY    80  63  55 SW3       30.19R
GATLINBURG       N/A     79  61  53 VRB3      30.18R
MORRISTOWN     PTCLDY    79  63  57 NW5       30.20R
$$

TNZ083-085-099-280100-
SOUTHEAST TENNESSEE

CITY           SKY/WX    TMP DP  RH WIND       PRES   REMARKS
CHATTANOOGA    MOCLDY    79  66  64 SE6       30.15R
$$

SKY/WX REPORTED AS FAIR MEANS FEW OR NO CLOUDS BELOW
12 THOUSAND FEET.



USA.gov is the U.S. government's official web portal to all federal, state and local government web resources and services.